Dati Storici

Data ora Umidita' aria (%) Temperatura aria (°C) Rad globale (W/m²) Gonioanemometro (°) Tacoanemometro (m/s) Pioggia (mm)
25-06-2020 01:30 97.8 % 18.493 48.563 -0 0 0
25-06-2020 01:20 97.8 % 18.419 59.86 0.022 0 0
25-06-2020 01:10 97.8 % 18.089 87.144 0.332 0 0
25-06-2020 01:00 97.8 % 18.205 98.302 0 0 0
25-06-2020 00:50 97.8 % 17.977 60.392 0 0 0
25-06-2020 00:40 97.8 % 17.963 83.007 0.189 0 0
25-06-2020 00:30 97.8 % 18.028 61.977 0.001 0 0
25-06-2020 00:20 97.8 % 17.936 67.668 0.933 0 0
25-06-2020 00:10 97.8 % 17.96 12.524 0.568 0 0
25-06-2020 00:00 97.8 % 18.054 43.039 0.226 0 0
24-06-2020 23:50 97.8 % 17.657 33.422 1.438 0 0
24-06-2020 23:40 97.8 % 17.464 30.892 2.26 0 0
24-06-2020 23:30 97.8 % 17.37 67.29 1.294 0 0
24-06-2020 23:20 97.8 % 17.825 339.675 3.147 0 0
24-06-2020 23:10 97.8 % 17.879 41.804 0.008 0 0
24-06-2020 23:00 97.8 % 18.53 40.655 1.986 0 0
24-06-2020 22:50 97.8 % 18.469 106.388 0.005 0 0
24-06-2020 22:40 97.7 % 18.474 86.625 0.38 0 0
24-06-2020 22:30 97.7 % 18.654 16.679 1.248 0 0
24-06-2020 22:20 97.7 % 18.796 233.448 1.006 0 0

I dati sono presentati in modo automatico a scopo informativo. In seguito a verifica i dati possono subire modifiche o essere invalidati e non riportati negli archivi definitivi.